Zurück zum Katalog

ONEWEB-0398

AktivKommunikationPO
NORAD 50478·PAYLOAD·🇬🇧 United Kingdom

Gestartet Dec 27, 2021 von Baikonur Cosmodrome

Loading…

Nächste Überflüge (nächste 24 Stunden)

TLE

AktuellSource: CelesTrak SupGP

Epoche: Sep 14, 2026, 22:59 UTC

1 50478C 21132K   26257.95778194 -.00002841  00000+0 -80263-2 0  2579
2 50478  87.8971   3.2158 0001478 105.5707 356.7455 13.11416904    16

Verfolge ONEWEB-0398 in Echtzeit mit AllMySat

Download on the App Store